Orbital Elements at Epoch 2459200.5 (2020-Dec-17.0) TDB
Reference: JPL 35 (heliocentric ecliptic J2000)
Element | Value | Uncertainty (1-sigma) | Units |
e | .3287402653313704 | 1.7265e-08 | |
a | 2.92772272356632 | 9.7436e-09 | au |
q | 1.965262378604446 | 5.1255e-08 | au |
i | 13.26232143830588 | 4.0903e-07 | deg |
node | 150.4126749819101 | 1.5707e-06 | deg |
peri | 261.0635282270126 | 4.6606e-06 | deg |
M | 65.28296545304596 | 3.1417e-06 | deg |
tp | 2458868.689049026494 (2020-Jan-20.18904903) | 1.4678e-05 | TDB |
period | 1829.756683408887 5.01 | 9.1343e-06 2.501e-08 | d yr |
n | .1967474709966956 | 9.8218e-10 | deg/d |
Q | 3.890183068528195 | 1.2947e-08 | au |
|
| | Orbit Determination Parameters
Additional Information
|